Torna al catalogo

COSMOS 1024 DEB

LostHEO
NORAD 26975·DEBRIS·🇷🇺 Russia

Lanciato Jun 28, 1978 da Plesetsk Cosmodrome

Loading…

Prossimi Passaggi (prossime 24 ore)

TLE

ObsoletoSource: Space-Track

Epoca: Sep 14, 2025, 22:35 UTC

1 26975U 78066F   25257.94102217  .00000138  00000-0  00000-0 0  9995
2 26975  65.4674  96.6522 6281946 343.4588   3.0392  2.05701639211974

Traccia COSMOS 1024 DEB in tempo reale con AllMySat

Download on the App Store